DRO-A

导读

DRO-A卫星是中国于2024年3月13日8时发射的人造卫星,作为中国航天领域最新发射任务的组成部分,该卫星承载着中国航天技术探索与空间科学研究的使命。 自发射入轨至今已近两年,它按计划开展空间探测、技术试验等相关工作,为中国后续空间项目积累了宝贵的在轨运行数据与实践经验,推动中国航天事业持续稳步发展,助力中国空间基础设施的完善与升级。

基本信息
目录编号:
59228
目录名称:
DRO-A
国际标识:
2024-048A
轨道中心:
EARTH
卫星名称:
DRO-A
卫星全名:
DRO-A
卫星状态:
在轨 (已飞行912 天)
发射日期:
2024-03-13 UTC
国别 :
中国 (CN)
星等 :
--
该卫星已列入 空间交会检测服务 Space Conjunction Data Service (SCDS) ,当前飞行风险评估等级: 无高风险
轨道信息
数据来源 国际轨道数据
星历时间: 2026-06-28T14:28:49+0800
轨道信息已过期75天
半长轴: 308051.847km
偏心率: 0.4438124
轨道倾角: 28.979°
近地点辐角 67.612°
升交点赤经 359.042°
平近点角 197.175°
近地点: 164956.48km
远地点: 438390.94km
周期: 28359.297分钟
每日圈数: 0.050777
详细信息
使用方式:
暂无
2D轨道图
3D轨道图
轨道高度分析图
轨道倾角分析图
轨道综合分析图
查看轨道综合分析图
与全量物体交会距离演化趋势
与全量物体交会风险概率演化趋势